SCP
1 1 0 0 0 0 0 0 0 0 0 0 0 0 0 0 0 0 0 0 0 0 0 0 0 0 0 0 0 0 0 0 0 0 0 0 0 0
1 1 0 0 0 0 0 0 0 0 0 0 0 0 0 0 0 0 0 0 0 0 0 0 0 0 0 0 0 0 0 0 0 0 0 0 0 0
1 0 0 0 0 0 0 0 0 0 0 0 0 0 0 0 0 0 0 0 0 0 0 0 0 0 0 0 0 0 0 0 0 0 0 0 0 0
0 0 0 0 0 0 0 0 0 0 0 0 0 0 0 0 0 0 0 0 0 0 0 0 0 0 0 0 0 0 0 0 0 0 0 0 0 0
0 0 0 0 0 0 0 0 0 0 0 0 0 0 0 0 0 0 0 0 0 0 0 0 0 0 0 0 0 0 0 0 0 0 0 0 0 0
0 0 0 0 0 0 0 0 0 0 0 0 0 0 0 0 0 0 0 0 0 0 0 0 0 0 0 0 0 0 0 0 0 0 0 0 0 0
0 0 0 0 0 0 0 0 0 0 0 0 0 0 0 0 0 0 0 0 0 0 0 0 0 0 0 0 0 0 0 0 0 0 0 0 0 0
0 0 0 0 0 0 0 0 0 0 0 0 0 0 0 0 0 0 0 0 0 0 0 0 0 0 0 0 0 0 0 0 0 0 0 0 0 0
1 1 0 0 0 0 0 0 0 0 0 0 0 0 0 0 0 0 0 0 0 0 0 0 0 0 0 0 0 0 0 0 0 0 0 0 0 0
1 1 0 0 0 0 0 0 0 0 0 0 0 0 0 0 0 0 0 0 0 0 0 0 0 0 0 0 0 0 0 0 0 0 0 0 0 0
1 1 0 0 0 0 0 0 0 0 0 0 0 0 0 0 0 0 0 0 0 0 0 0 0 0 0 0 0 0 0 0 0 0 0 0 0 0
1 1 0 0 0 0 0 0 0 0 0 0 0 0 0 0 0 0 0 0 0 0 0 0 0 0 0 0 0 0 0 0 0 0 0 0 0 0
1 1 0 0 0 0 0 0 0 0 0 0 0 0 0 0 0 0 0 0 0 0 0 0 0 0 0 0 0 0 0 0 0 0 0 0 0 0
1 1 0 0 0 0 0 0 0 0 0 0 0 0 0 0 0 0 0 0 0 0 0 0 0 0 0 0 0 0 0 0 0 0 0 0 0 0
0 0 0 0 0 0 0 0 0 0 0 0 0 0 0 0 0 0 0 0 0 0 0 0 0 0 0 0 0 0 0 0 0 0 0 0 0 0
0 0 0 0 0 0 0 0 0 0 0 0 0 0 0 0 0 0 0 0 0 0 0 0 0 0 0 0 0 0 0 0 0 0 0 0 0 0
0 0 0 0 0 0 0 0 0 0 0 0 0 0 0 0 0 0 0 0 0 0 0 0 0 0 0 0 0 0 0 0 0 0 0 0 0 0
0 0 0 0 0 0 0 0 0 0 0 0 0 0 0 0 0 0 0 0 0 0 0 0 0 0 0 0 0 0 0 0 0 0 0 0 0 0
0 0 0 0 0 0 0 0 0 0 0 0 0 0 0 0 0 0 0 0 0 0 0 0 0 0 0 0 0 0 0 0 0 0 0 0 0 0
0 0 0 0 0 0 0 0 0 0 0 0 0 0 0 0 0 0 0 0 0 0 0 0 0 0 0 0 0 0 0 0 0 0 0 0 0 0
0 0 0 0 0 0 0 0 0 0 0 0 0 0 0 0 0 0 0 0 0 0 0 0 0 0 0 0 0 0 0 0 0 0 0 0 0 0
0 0 0 0 0 0 0 0 0 0 0 0 0 0 0 0 0 0 0 0 0 0 0 0 0 0 0 0 0 0 0 0 0 0 0 0 0 0
0 0 0 0 0 0 0 0 0 0 0 0 0 0 0 0 0 0 0 0 0 0 0 0 0 0 0 0 0 0 0 0 0 0 0 0 0 0
Wind_Speed
1 1 1 2 1 1 0 1 1 1 1 1 1 1 2 3 6 4 3 6 6 6 5 4 4 3 3 2 2 2 2 2 1 2 2 2 2 2
1 1 1 1 1 1 1 1 1 1 1 1 1 2 1 2 5 3 3 7 6 6 6 5 5 4 4 3 3 3 2 2 2 2 2 2 2 2
2 2 1 1 1 1 0 0 0 1 1 1 1 1 1 2 3 2 2 4 4 7 7 7 6 6 5 4 4 4 3 3 3 2 2 3 3 3
2 1 1 1 1 1 1 0 0 1 1 1 1 1 1 2 3 3 3 3 3 7 9 8 8 7 7 6 5 5 4 4 3 3 3 3 3 4
2 2 1 1 1 1 1 1 1 1 1 1 1 1 1 2 2 3 3 2 3 5 7 8 8 8 8 7 6 6 5 4 4 4 4 4 4 4
2 1 1 1 1 1 1 1 1 1 1 1 1 1 1 2 2 2 2 2 3 3 4 5 7 8 8 7 7 7 6 6 5 5 4 4 4 4
1 1 2 3 2 0 0 0 0 1 1 1 1 1 1 1 1 1 1 1 2 1 1 2 3 3 4 6 7 8 8 7 7 6 5 5 5 5
1 1 2 2 2 2 2 1 0 0 1 1 1 1 1 0 1 1 1 1 2 1 1 2 2 3 3 4 7 9 9 9 8 7 6 6 6 6
1 1 1 1 1 1 2 2 1 1 1 1 1 1 1 1 1 2 2 2 3 2 2 3 2 2 2 3 7 8 9 9 8 8 7 6 6 6
1 2 2 1 1 1 0 0 1 1 2 2 2 2 2 2 2 3 4 3 3 3 2 2 2 2 1 1 6 8 9 9 8 7 7 7 6 6
1 1 2 2 2 2 1 1 1 2 2 3 3 4 4 5 3 2 3 3 3 3 1 1 2 1 1 2 4 7 7 7 7 7 7 7 7 6
2 2 2 2 2 1 0 1 2 2 2 3 4 5 5 5 5 4 3 3 3 2 1 1 1 1 2 1 1 3 3 5 6 6 7 7 6 4
1 2 2 4 3 2 2 2 3 4 4 4 4 4 3 3 3 4 4 3 3 3 2 1 1 1 1 2 2 2 3 3 3 3 5 6 6 5
1 1 2 4 3 3 3 4 4 5 4 3 3 3 3 3 3 4 4 4 4 5 3 2 2 2 2 3 2 1 2 2 2 3 3 4 5 6
0 0 1 4 4 4 6 6 4 3 3 3 3 3 3 3 3 3 4 4 5 5 4 4 3 2 2 3 2 2 2 2 2 2 2 3 3 3
2 1 3 4 4 4 4 4 4 3 3 3 3 3 3 2 3 2 3 3 3 3 3 4 3 3 3 3 3 3 2 2 2 2 2 3 2 3
1 2 2 2 3 3 3 3 3 3 3 3 3 3 3 2 2 2 2 2 3 3 3 3 3 2 3 2 3 3 2 2 2 2 2 2 2 3
1 2 3 3 3 3 3 3 3 2 2 2 2 2 2 2 2 1 2 2 3 3 3 2 1 1 2 3 3 3 3 3 2 2 2 2 3 2
2 3 3 3 2 2 2 2 1 1 1 2 2 2 2 2 2 2 2 2 2 3 2 2 2 2 3 4 3 3 3 3 2 2 2 2 2 2
3 3 3 2 2 1 2 1 1 1 2 2 2 2 2 2 2 2 2 2 2 2 2 2 2 2 3 4 3 2 3 3 2 2 2 2 1 1
2 2 2 2 1 1 1 1 1 1 2 2 2 2 2 2 2 2 3 3 3 2 2 2 2 2 1 1 2 2 2 3 3 2 2 2 2 2
2 2 2 2 1 1 1 1 1 1 2 2 1 1 1 2 2 3 3 3 2 1 2 2 1 1 1 2 3 4 3 2 2 2 2 3 2 2
2 2 2 1 1 1 1 1 1 1 1 1 1 1 2 2 2 3 3 2 1 2 2 2 2 1 2 3 3 3 3 2 2 1 2 3 5 5
Wind_Direction
202 209 236 245 240 246 222 192 194 225 214 181 158 170 160 142 150 162 161 172 175 175 180 186 196 202 204 213 216 225 221 207 214 238 249 248 249 249
181 214 237 254 268 233 229 243 216 212 236 188 187 187 166 151 158 175 180 173 186 186 190 194 198 201 205 210 210 204 198 202 216 234 244 247 245 249
197 198 216 241 275 280 279 222 147 174 219 254 215 174 157 155 169 198 193 182 190 197 200 201 201 204 206 208 206 200 202 208 219 232 245 254 256 256
212 207 208 220 234 259 265 265 227 197 190 221 230 196 194 190 186 207 215 207 194 195 200 203 204 206 208 209 207 206 207 211 220 231 244 256 262 265
196 190 195 203 235 237 235 248 243 234 203 203 225 201 192 195 200 227 224 220 221 192 196 206 206 206 207 207 210 210 214 219 225 232 241 251 258 261
172 163 162 173 212 249 234 253 249 273 253 225 220 202 192 203 202 223 230 222 231 214 202 196 204 208 210 210 211 213 217 224 227 229 235 244 252 260
142 139 125 117 116 140 199 357 287 292 296 273 216 225 211 194 230 249 251 242 245 220 206 208 193 202 212 213 211 211 214 218 220 222 227 237 246 255
148 152 143 135 146 149 133 120 110 227 276 284 276 246 263 248 292 282 287 287 278 248 242 254 213 210 208 199 201 204 211 216 218 220 225 233 241 247
144 137 148 120 159 208 202 201 221 235 230 234 281 287 289 289 297 282 283 274 269 262 258 264 238 235 224 194 188 202 211 214 216 219 223 229 235 244
128 132 121 86 23 12 353 251 249 246 232 226 247 268 277 289 273 259 260 265 267 263 225 255 257 250 224 175 191 198 209 213 215 218 222 226 232 242
158 126 128 116 79 51 1 278 273 270 261 243 241 240 248 258 263 267 271 273 279 279 257 254 270 274 251 209 200 201 205 210 216 220 223 226 230 236
161 138 126 130 128 113 245 277 272 277 282 266 257 253 247 246 241 230 242 261 275 283 278 267 276 310 297 255 184 193 210 222 224 226 225 232 234 230
196 170 149 147 158 187 225 254 265 285 285 266 257 252 244 234 223 218 223 231 245 256 272 275 289 290 263 283 265 215 199 210 209 227 230 232 231 224
221 177 160 175 185 217 236 257 273 284 276 273 267 262 251 238 231 221 224 229 228 235 247 243 244 252 270 279 279 258 229 214 208 209 214 221 229 230
267 271 226 214 216 229 240 254 263 260 266 274 278 278 264 242 229 222 219 230 241 246 238 222 223 231 239 252 266 267 264 234 215 218 211 212 215 208
239 237 239 236 234 246 244 238 242 253 261 270 276 269 266 256 239 226 225 228 236 246 240 230 229 225 244 250 247 257 252 242 225 222 224 229 218 206
223 224 234 227 223 224 230 224 225 231 249 269 281 288 284 270 271 260 238 243 248 248 245 237 231 227 240 255 263 257 252 255 241 220 229 241 231 217
222 240 244 241 232 227 232 233 228 232 248 264 271 278 291 298 286 283 272 250 255 256 255 249 239 266 277 270 244 252 259 261 253 232 230 235 251 240
227 243 244 245 243 243 245 248 246 238 260 272 278 280 286 291 292 292 279 267 262 257 252 245 225 230 259 274 277 239 250 261 266 264 253 246 254 256
236 250 253 252 250 256 259 262 258 248 252 261 271 283 293 295 298 299 290 283 281 274 266 247 233 230 240 261 273 279 248 252 259 262 264 267 276 293
249 257 262 260 267 272 273 281 289 277 270 272 269 280 294 300 302 302 294 290 281 284 299 290 272 250 231 283 282 280 274 237 229 234 247 256 269 261
256 261 266 264 251 258 269 276 283 285 284 284 296 298 298 301 302 297 293 298 297 293 293 301 294 264 232 239 259 267 268 259 239 238 246 240 241 244
265 269 262 262 260 263 266 263 270 280 295 314 317 315 304 292 290 296 298 304 321 316 305 294 291 292 273 249 252 259 265 266 255 239 269 259 234 240